Lid_Strength_Index
-1 -1 -1 -1 -1 -1 -1 -1 -1 -1 -1 -1 -1 -1 -1 -1 -1 1 4 1 0 -1 -1 2 2 3 4 5 6 8 11 12 11 11 10 9 9 8 7 6 5 5 5 4 4
-1 -1 -1 -1 -1 -1 -1 -1 -1 -1 -1 -1 -1 -1 -2 -1 2 3 -0 -2 -2 -2 2 3 5 4 6 6 6 8 11 11 9 9 9 9 9 8 8 8 7 6 5 5 3
-1 -1 -1 -1 -1 -1 -1 -1 -1 -1 -1 -1 -1 -1 -1 0 7 6 -1 -2 -2 -1 2 2 3 5 8 6 7 8 11 9 9 8 8 8 8 8 8 9 7 7 8 6 5
-1 -1 -1 -1 -1 -1 -1 -1 -1 -1 -1 -1 -1 -1 -1 3 16 4 -2 -2 -2 1 2 3 5 7 8 10 7 10 8 9 8 8 8 8 7 8 8 7 6 7 7 6 5
-1 -1 -1 -1 -1 -2 -1 -2 -2 -1 -1 -2 -1 -1 1 6 7 3 -2 -1 -0 2 3 5 6 7 9 8 8 10 9 7 7 8 7 7 8 8 8 7 7 7 6 5 5
-1 -1 -1 -1 -1 -1 -2 -2 -2 -2 -2 -2 -1 -1 5 10 4 2 2 0 1 2 3 4 5 5 8 8 9 8 8 8 7 7 7 8 8 7 7 6 7 8 6 5 5
-1 -1 -1 -1 -1 -1 -1 -1 -2 -2 -2 -2 -1 1 5 7 3 2 0 1 1 3 4 3 3 6 6 9 6 8 11 9 8 8 8 7 10 10 6 6 7 7 6 6 5
-1 -0 -1 -1 -1 -1 -1 -1 -1 -2 -2 -2 -1 4 9 3 3 4 2 3 2 2 3 3 3 5 6 6 8 10 10 13 9 8 8 8 13 8 6 7 7 7 7 6 5
-1 -0 -1 -1 -1 -1 -1 -1 -1 -2 -2 -1 3 6 9 2 5 4 2 3 2 3 2 1 3 7 7 11 13 12 15 14 12 8 9 10 12 8 6 7 8 7 7 8 6
-1 -1 -0 -1 -1 -1 -1 -1 -1 -1 -0 1 3 8 8 8 4 4 3 3 4 4 5 6 7 10 10 12 17 15 15 14 13 10 10 11 11 9 7 7 7 8 7 7 7
-1 -1 -1 -1 -1 -1 -0 1 4 6 4 8 8 10 8 5 3 4 2 4 4 6 10 8 11 13 11 10 11 12 13 14 12 9 11 11 11 10 8 7 7 7 7 7 8
-1 -1 -1 -1 -1 -1 1 5 5 6 8 6 7 6 5 3 7 5 2 7 8 11 9 11 13 10 9 9 11 12 14 13 11 9 11 11 12 9 8 8 7 7 6 6 6
-1 -1 -1 -1 -1 0 2 4 3 4 10 7 6 6 5 4 7 7 4 6 9 11 11 12 11 8 10 11 12 12 13 13 13 11 10 12 13 11 9 7 7 6 5 5 5
-1 -1 -1 -1 2 2 4 2 3 6 12 11 8 7 6 5 9 4 3 6 8 11 10 11 9 10 11 12 11 15 10 11 12 13 17 11 19 12 10 9 8 7 6 6 5
-1 -1 -1 -1 2 4 3 3 4 7 20 11 8 5 5 8 8 7 4 6 10 10 10 12 11 11 12 12 10 12 10 11 12 14 15 14 17 15 11 12 10 8 7 6 5
-0 -1 -0 1 1 1 2 3 5 15 21 13 8 9 9 9 9 7 7 6 6 10 10 11 9 10 10 9 9 9 11 11 12 14 18 15 16 15 13 12 9 7 6 5 5
-0 2 0 0 4 -0 3 6 14 18 14 14 12 10 10 11 10 9 10 11 13 15 15 12 12 10 9 12 10 11 13 18 20 19 20 13 16 14 12 10 9 7 6 6 6
-0 -0 0 1 -0 0 4 11 18 16 14 12 12 10 12 10 10 10 11 13 10 13 14 16 17 11 9 11 13 13 12 17 22 21 19 15 18 14 9 8 7 6 6 6 7
-0 1 2 1 -0 1 7 15 15 14 13 13 12 13 13 11 11 11 11 12 10 11 15 16 16 10 10 9 10 13 15 11 16 18 18 16 14 10 9 8 8 8 7 7 6
3 4 4 0 0 4 10 13 14 12 11 11 15 13 16 13 14 12 12 10 10 9 11 13 16 12 11 9 10 11 10 16 16 22 22 17 16 15 12 10 9 9 8 7 7
3 8 3 0 1 7 13 12 12 10 10 12 15 15 15 13 13 13 13 13 9 9 10 11 14 14 11 13 13 13 14 13 13 15 20 21 17 12 11 9 9 9 8 8 9
5 11 4 1 10 10 12 11 9 11 10 12 13 15 14 13 14 13 14 13 9 9 12 11 13 16 14 12 10 11 12 13 16 18 16 16 15 9 10 10 11 9 9 11 11
8 9 2 3 13 12 11 12 11 11 11 12 14 13 13 13 15 13 13 10 10 9 11 10 16 19 17 14 11 13 12 11 12 13 17 19 16 10 10 10 9 9 8 11 10
8 11 7 6 7 10 12 12 13 9 11 11 12 12 13 13 13 14 13 11 10 9 7 8 13 15 18 16 14 14 12 12 13 16 16 15 14 10 9 8 7 7 6 6 6
8 10 11 12 11 10 10 11 13 13 11 10 12 12 13 15 14 14 12 11 11 8 9 10 16 15 13 12 12 13 13 12 13 13 16 13 13 11 9 9 8 7 7 7 6
9 9 8 9 9 10 10 12 12 12 12 12 13 12 12 14 13 14 12 12 12 9 9 10 18 14 17 13 13 14 13 12 12 12 12 12 13 8 8 7 8 7 7 7 7
7 6 7 9 10 11 11 11 11 10 12 10 11 12 13 12 10 9 9 9 10 10 11 11 13 14 17 14 13 18 14 13 12 11 11 14 11 9 9 9 8 8 7 7 7